Location: Newark
(47.0667°N, 8.7500°E)
Time: 00:23:41
(UTC+00:00)

X-37B - Visible Passes

Search period start: 26 September 2020 00:00
Search period end: 06 October 2020 00:00
Orbit: 386 x 387 km, 45.0° (Epoch: 18 September)

Date Brightness Start Highest point End Pass type
(mag) Time Alt. Az. Time Alt. Az. Time Alt. Az.
02 Oct 3.4 19:10:35 10° SW 19:10:54 12° SW 19:10:54 12° SW visible
03 Oct 2.3 18:12:38 10° SSW 18:14:56 19° SSE 18:15:15 18° SE visible
04 Oct 1.9 18:49:40 10° SW 18:51:46 30° SSW 18:51:46 30° SSW visible
05 Oct 1.8 17:51:27 10° SW 17:54:12 27° SSE 17:55:54 17° ESE visible
05 Oct 3.4 19:27:25 10° WSW 19:28:11 16° WSW 19:28:11 16° WSW visible
